Regional Weather Roundup
Issued by NWS State College, PA

Home | Current Version | Previous Version | Text Only | Print | Product List | Glossary On
Versions: 1 2 3 4 5 6 7 8 9 10 11 12 13 14 15 16 17 18 19 20 21 22 23 24 25 26 27 28 29 30 31 32 33 34 35 36 37 38 39 40 41 42 43 44 45 46 47 48 49 50
000
ASUS41 KCTP 171110
RWRCTP

REGIONAL WEATHER ROUNDUP
NATIONAL WEATHER SERVICE STATE COLLEGE PA
700 AM EDT WED SEP 17 2014

Note: "fair" indicates few or no clouds below 12,000 feet with no
significant weather and/or obstructions to visibility.

* = STATION THAT DOES NOT REPORT PRECIPITATION /E.G. RAIN...SNOW...ETC/
    THUNDER OR FOG.

PAZ002>004-007>009-013>016-020>023-029>032-171200-
WESTERN PENNSYLVANIA

CITY           SKY/WX    TMP DP  RH WIND       PRES   REMARKS
ERIE           CLEAR     50  45  83 S5        30.06S
MEADVILLE      CLEAR     46  43  89 CALM      30.07S
FRANKLIN*      CLEAR     43  39  87 CALM      30.09S
NEW CASTLE     FOG       45  45 100 CALM      30.09S VSB<1/4
BEAVER COUNTY  MOCLDY    48  46  93 CALM      30.07
BUTLER*        MOCLDY    46  43  87 CALM      30.10R VSB 1
PITTSBURGH INT PTCLDY    49  47  93 CALM      30.07S
PITTSBURGH     CLOUDY    51  47  86 CALM      30.06S
INDIANA*       MOCLDY    46  46 100 CALM      30.11F
LATROBE        CLOUDY    46  46 100 CALM      30.09R
WASHINGTON CO* CLOUDY    43  39  87 CALM      30.07S VSB<1/4
$$

PAZ004>006-010>012-017>019-024>028-033>037-041-042-045-046-049>053-171200-
CENTRAL PENNSYLVANIA

CITY           SKY/WX    TMP DP  RH WIND       PRES   REMARKS
BRADFORD       PTCLDY    35  33  92 CALM      30.08R
DUBOIS         CLOUDY    46  44  93 CALM      30.07S
CLEARFIELD     FOG       44  44 100 CALM      30.09R VSB<1/4
JOHNSTOWN      CLOUDY    46  44  93 SW5       30.08R FOG
ALTOONA        CLOUDY    46  45  96 SW3       30.08S FOG
STATE COLLEGE  FOG       45  45 100 CALM      30.09R VSB 1/8
WILLIAMSPORT   CLOUDY    47  45  93 NW6       30.08S FOG
SELINSGROVE    FOG       49  48  97 CALM      30.08S VSB 1/2
FT INDIANTOWN  CLEAR     48  48 100 CALM      30.06R
CAPITAL CITY   CLEAR     49  46  90 CALM      30.06S
HARRISBURG     CLEAR     53  50  89 N3        30.05S
YORK           FOG       41  41 100 CALM      30.06S VSB 1/4
$$

PAZ038>040-043-044-047-048-054-055-060>062-067>071-171200-
EASTERN PENNSYLVANIA

CITY           SKY/WX    TMP DP  RH WIND       PRES   REMARKS
SCRANTON       CLOUDY    44  41  89 E3        30.08R
MOUNT POCONO   CLEAR     37  35  92 N3        30.06F
ALLENTOWN      CLEAR     45  43  93 CALM      30.06S
QUAKERTOWN*    SUNNY     45  43  93 CALM      30.06S
READING        CLEAR     49  46  90 N3        30.05R
LANCASTER      PTCLDY    50  47  89 CALM      30.05S
COATESVILLE    SUNNY     52  48  87 CALM      30.06S
POTTSTOWN      CLEAR     49  47  93 CALM      30.07R
BLUE BELL        N/A     46  46 100 CALM      30.05R VSB 3/4
DOYLESTOWN     CLEAR     50  32  50 NE3       30.05R
WILLOW GROVE   NOT AVBL
NORTH PHILA    CLEAR     53  47  79 CALM      30.07R
PHILADELPHIA   MOCLDY    58  50  75 NW6       30.05R
$$


USA.gov is the U.S. government's official web portal to all federal, state and local government web resources and services.